World > North America > United States > Iowa

Hourly Robinson, IA Regional Weather

Feedback E-mail the Weather

Quick WX

Robinson, IA Weather Maps

°F °C°F °C
Robinson Weather Map
UTC Time: 7/4/2022, 15:56
Your Time:

Robinson, IA Regional Weather

Expires:202207041600;;670856
ASUS43 KDMX 041506
RWRIA 

WEATHER ROUNDUP FOR IOWA
NATIONAL WEATHER SERVICE DES MOINES IA
1000 AM CDT MON JUL 04 2022

NOTE: "FAIR" INDICATES FEW OR NO CLOUDS BELOW 12,000 FEET WITH NO
SIGNIFICANT WEATHER AND/OR OBSTRUCTIONS TO VISIBILITY.

* - THESE STATIONS ARE NOT NWS STATIONS...THUS NOT UNDER NWS
QUALITY CONTROL.  THEY ALSO DO NOT REPORT WEATHER SUCH 
AS PRECIPITATION OR FOG.  


IAZ007>011-017>019-026>030-037>042-050>054-066-041600-
   NORTHEAST IOWA
  
CITY           SKY/WX    TMP DP  RH WIND       PRES   REMARKS
CEDAR RAPIDS   HVY RAIN  70  69  97 S5        29.99F FOG              
CHARLES CITY * LGT RAIN  70  70 100 SE13G20   29.92F                  
CLINTON *      CLOUDY    78  70  76 S13       30.02S HX  80           
DECORAH *      LGT RAIN  70  70 100 SE3       29.98F                  
DUBUQUE        CLOUDY    73  68  84 S7        30.01S                  
MONTICELLO *     N/A    N/A N/A N/A MISG        N/A                   
OELWEIN *      PTSUNNY   70  70 100 S8        30.03R FOG              
WATERLOO       HVY RAIN  71  69  93 E7        29.98R FOG              
$$
 

SKY/WX - Weather  TMP - Temperature  DP - Dew Point  RH - Humidity
WIND - Wind Direction/Speed PRES - Barometric Pressure VSB - Visibility
WCI - Wind Chill Index E13G22 Wind - East Wind 13 mph/Gusts of 22 mph

Trending Headlines

Robinson Radar Loop



Robinson Quick Facts


National Two Day Weather Forecast


E-mail the Robinson Weather Forecast

Voice your opinion or tell us about page issues...